Wind_Speed
89 90 90 90 91 92 92 93 94 94 95 96 96 96 97 97 98 98 98 98 99 100 101 102 103 104 104 104 103 102 101 99 98 98 97 96 96 95 95 95 95 94 94 94 93 93 92 92 91 91 90 89 88 86 85 83 82 80 79 77 76 76 75 75 74 74 74 74 74 74 74 74 74 74 74 74 74 74 74 74 74 74 74 74 74 74
89 90 90 91 91 92 93 93 94 94 94 94 95 95 96 96 97 97 98 99 100 101 102 103 104 104 104 103 102 101 100 99 98 97 96 96 95 95 95 94 94 94 94 93 92 92 91 90 90 89 88 87 85 84 82 81 80 79 78 77 76 76 76 75 75 75 75 75 75 75 75 75 75 75 75 75 75 75 75 75 75 76 76 76 76 76
89 90 90 90 91 91 92 93 93 93 93 93 94 95 95 96 97 98 99 100 102 102 103 104 104 104 103 102 101 100 99 98 97 96 96 95 95 95 95 94 94 93 92 92 91 90 89 89 88 87 86 84 83 82 81 80 79 78 78 77 77 76 76 76 76 76 75 75 75 75 75 76 76 76 76 76 77 77 77 77 77 77 77 77 77 77
88 88 89 89 89 90 91 91 92 92 92 93 94 95 95 96 98 99 100 101 102 103 103 103 103 102 102 101 100 99 98 97 96 96 95 95 95 94 94 93 93 92 91 90 89 88 87 86 85 84 83 82 81 80 80 79 78 78 78 77 77 77 76 76 76 76 76 76 76 76 76 77 77 77 78 78 78 78 78 78 78 78 78 78 78 78
86 86 87 87 88 88 89 90 90 91 92 93 94 95 96 97 99 100 100 101 101 101 101 101 100 100 100 99 98 97 97 96 95 95 95 94 94 93 93 92 91 90 89 88 87 86 85 84 83 82 81 81 80 80 79 79 79 78 78 78 77 77 77 77 77 77 77 77 78 78 78 79 79 79 80 80 80 80 80 80 80 79 80 80 80 80
84 84 85 85 86 87 88 89 90 91 92 93 94 95 96 97 98 98 99 99 99 99 99 98 98 98 98 97 97 96 95 95 94 94 93 93 92 92 91 90 89 88 87 86 85 84 83 82 82 81 81 80 80 80 80 79 79 79 78 78 78 78 78 78 78 78 79 79 80 80 81 81 82 82 82 82 82 82 82 81 81 81 81 81 81 81
83 83 83 84 85 86 87 88 89 90 91 92 93 94 95 95 95 96 96 96 96 96 96 96 96 96 96 95 95 94 94 93 93 92 92 91 91 90 89 88 87 85 84 83 83 82 82 81 81 81 81 81 81 81 81 80 80 79 79 79 79 79 79 80 80 81 81 82 82 83 83 83 83 83 83 83 83 83 83 83 83 83 82 82 82 82
82 82 82 84 84 85 86 87 88 89 89 90 91 92 92 93 93 93 93 93 93 94 94 94 94 94 94 93 93 92 92 91 91 90 90 89 88 87 86 85 84 83 83 82 82 82 82 82 82 82 82 82 82 81 81 81 80 80 80 80 81 81 82 82 83 83 83 83 84 84 84 84 84 84 84 84 84 84 84 84 84 84 84 84 84 84
80 81 81 82 83 84 85 85 86 86 87 87 88 89 90 90 90 90 90 91 91 91 92 92 92 92 92 91 91 90 89 89 88 87 87 86 85 85 84 83 83 82 82 82 82 82 82 83 83 83 83 82 82 82 81 81 81 82 82 82 83 83 83 83 84 84 84 84 84 84 84 84 84 84 85 85 85 85 85 85 86 86 86 86 86 86
78 79 79 80 80 81 82 83 83 84 84 85 86 86 87 88 88 89 89 89 89 89 89 89 90 90 89 89 88 87 86 86 85 84 84 84 83 83 82 82 82 83 83 83 83 83 83 83 83 83 83 82 82 82 82 83 83 83 83 83 83 83 84 84 84 84 84 84 84 84 85 85 85 85 85 86 86 86 87 87 87 87 88 88 88 88
75 76 77 77 78 78 79 80 81 81 82 83 84 84 85 85 86 87 87 87 87 87 87 87 87 87 87 86 85 84 83 83 82 82 82 82 82 82 83 83 83 84 84 84 84 84 84 84 83 83 83 83 83 83 83 83 83 83 83 83 83 83 83 83 84 84 84 84 85 85 85 86 86 86 87 87 88 88 88 89 89 89 89 90 90 90
72 73 74 75 76 76 77 78 79 80 80 81 82 83 83 83 83 83 84 84 84 84 84 84 84 83 83 82 81 81 80 80 81 81 82 82 83 83 83 84 84 85 85 85 85 85 84 84 84 84 84 83 83 83 82 82 82 82 82 82 83 83 83 84 84 84 85 85 86 86 87 87 88 88 89 89 89 90 90 90 91 91 91 91 91 91
70 71 72 74 74 75 76 77 77 78 78 79 79 79 80 80 80 80 80 81 81 81 81 81 80 80 79 79 79 79 79 80 81 82 83 83 84 84 84 85 85 86 86 86 85 85 85 84 84 84 83 83 82 82 82 82 82 82 82 83 83 84 84 85 85 86 86 87 88 88 89 89 89 90 90 91 91 91 92 92 92 92 93 93 93 93
68 70 71 72 73 73 74 74 74 75 75 76 76 76 76 76 76 77 77 77 78 77 77 77 77 78 78 78 78 79 79 81 82 83 84 85 85 85 85 86 86 87 86 86 86 85 85 84 84 83 83 82 82 82 82 82 82 83 83 84 85 85 86 87 87 88 88 89 89 90 90 91 91 91 92 92 92 92 93 93 93 93 93 93 93 93
66 67 68 69 70 70 70 71 71 72 72 72 72 73 73 73 73 73 73 74 74 74 75 75 77 78 78 79 79 79 80 82 83 85 86 86 85 85 85 86 87 87 87 86 86 86 85 84 84 84 83 83 83 83 83 84 84 85 85 86 87 87 88 89 89 90 90 91 91 91 92 92 92 92 93 93 93 93 93 93 93 93 93 93 93 93
64 64 65 66 67 67 68 68 68 69 69 69 69 69 69 69 70 70 71 72 73 74 75 76 78 79 80 80 80 80 81 83 84 85 86 87 86 86 86 87 88 88 87 87 86 86 86 85 85 85 84 84 84 85 85 86 86 87 87 88 89 89 90 90 91 91 92 92 92 92 93 93 93 93 93 93 93 93 93 93 92 92 92 92 92 91
61 61 62 63 64 64 65 65 65 65 65 65 66 66 67 68 69 70 71 73 74 75 76 77 79 80 82 82 81 81 82 83 85 86 87 87 87 86 86 87 88 89 88 88 88 88 87 87 87 87 87 87 87 87 87 88 88 89 89 90 90 91 91 91 92 92 92 93 93 93 93 93 93 93 93 92 92 92 92 91 91 91 90 90 90 89
57 58 59 60 60 61 61 61 61 62 63 64 65 66 67 68 70 71 72 73 75 76 77 78 79 81 82 83 83 82 82 83 85 87 88 88 88 88 87 88 89 90 90 90 89 89 89 89 89 89 89 89 89 89 89 90 90 90 91 91 91 92 92 92 92 92 93 93 93 93 92 92 92 92 91 91 91 90 90 89 89 88 88 88 87 87
54 54 55 56 57 57 58 59 60 61 63 64 66 67 69 70 71 72 73 75 76 77 78 79 80 81 82 83 84 83 83 85 86 88 89 90 90 90 89 90 91 91 92 91 91 91 91 91 91 91 91 91 91 91 91 91 91 91 91 92 92 92 92 92 92 92 92 92 92 91 91 91 90 90 89 89 88 88 87 87 86 86 85 85 85 84
51 52 53 54 56 57 59 60 61 63 64 66 67 69 70 71 72 73 74 75 76 77 78 80 81 82 83 84 85 85 85 86 88 90 91 92 92 91 91 92 93 93 93 93 93 93 93 93 93 93 93 92 92 92 92 92 92 92 92 92 92 92 91 91 91 91 91 90 90 90 89 89 88 87 87 86 85 85 84 84 83 83 82 82 82 81
51 52 54 55 56 58 60 61 63 64 65 67 68 70 71 72 73 74 75 76 77 78 80 81 82 83 84 85 86 87 87 88 90 91 92 93 93 93 93 93 94 95 95 95 95 95 95 95 94 94 94 93 93 93 92 92 92 91 91 91 91 90 90 90 89 89 88 88 88 87 87 86 85 85 84 83 83 82 81 81 80 80 80 79 79 79
52 53 55 56 58 59 61 63 64 65 66 68 69 71 72 73 74 76 77 78 79 80 82 83 84 85 86 87 88 88 89 89 91 92 94 95 95 95 94 95 95 97 97 97 97 96 96 96 95 95 94 93 93 92 92 91 90 90 89 89 89 88 88 87 87 86 86 85 85 84 84 83 82 82 81 80 80 79 78 78 77 77 77 76 76 76
53 55 56 57 59 60 62 64 65 66 67 69 70 72 73 74 76 77 79 80 81 82 83 84 85 86 87 88 89 89 90 91 92 93 95 97 98 97 96 96 97 98 98 98 98 97 96 96 95 94 93 92 92 91 90 89 89 88 87 87 86 86 85 85 84 83 83 82 82 81 81 80 79 79 78 77 77 76 75 75 74 74 74 73 73 73
54 55 57 58 60 61 63 64 66 67 69 70 72 73 74 76 77 79 80 81 82 84 85 86 87 88 89 89 90 91 91 92 93 94 96 98 99 98 98 97 98 98 98 98 97 96 96 95 94 93 92 91 90 89 88 87 86 85 85 84 83 83 82 81 81 80 80 79 79 78 78 77 77 76 75 75 74 73 72 72 71 71 71 70 70 71
55 57 58 60 61 63 64 66 67 69 70 72 73 75 76 77 78 80 81 82 84 85 86 87 89 90 90 91 92 92 93 93 94 95 97 98 98 98 98 97 97 97 97 96 96 95 95 94 93 91 90 89 88 86 85 84 83 83 82 81 80 79 79 78 77 77 77 76 76 75 75 74 74 73 72 71 71 70 69 69 68 68 68 68 68 68
57 58 60 61 63 64 66 67 69 70 72 73 74 76 77 79 80 81 83 84 85 86 87 89 90 91 92 92 93 94 94 94 94 95 96 97 97 97 96 95 95 95 95 95 94 93 93 92 91 89 88 87 85 84 83 82 80 79 78 78 77 76 75 75 74 74 74 73 73 73 72 71 71 70 69 68 68 67 66 66 65 65 65 65 65 65
58 60 61 63 65 66 68 69 70 72 73 75 76 77 78 80 81 83 84 85 86 87 89 90 92 92 93 93 94 94 93 93 93 93 94 94 94 94 94 93 92 92 92 92 92 91 91 90 89 88 86 84 83 81 80 78 77 76 75 74 73 72 72 71 71 71 71 71 70 70 69 68 68 67 66 65 65 64 64 63 63 63 62 63 63 63
60 62 63 65 67 68 69 71 72 73 75 76 77 78 80 81 83 84 86 87 87 88 90 91 92 93 93 94 93 93 92 92 92 91 91 91 91 91 91 90 89 89 89 90 90 90 89 88 87 86 84 82 81 79 77 75 74 72 71 70 69 69 68 68 68 68 68 68 67 67 66 65 64 64 63 62 62 61 61 61 60 60 60 60 61 61
62 63 65 66 68 69 71 72 73 75 76 77 78 80 81 82 84 85 87 88 89 90 91 92 92 93 93 93 92 91 90 90 89 88 88 88 88 89 88 88 87 87 87 87 88 88 87 86 84 83 81 80 78 76 74 72 70 69 68 66 66 65 65 65 65 65 65 65 65 64 63 62 62 61 60 60 59 59 59 59 58 58 59 59 59 59
64 65 66 67 69 70 71 73 74 76 77 78 80 81 82 84 85 86 88 88 89 90 91 91 91 91 91 91 90 89 88 87 86 86 85 86 86 86 86 86 85 85 85 85 85 85 85 83 82 80 78 76 75 73 71 69 67 65 64 63 62 62 61 61 62 62 62 62 62 61 60 60 59 58 58 58 57 57 57 57 57 57 57 57 58 58
65 66 68 69 70 71 72 74 75 77 78 80 81 83 84 85 86 87 88 89 89 90 90 90 90 89 88 88 87 87 86 85 84 84 84 84 84 84 84 84 83 83 82 81 82 82 82 81 79 77 75 73 72 69 67 65 64 62 61 60 59 58 58 58 58 59 59 59 59 58 58 57 57 56 56 56 56 56 56 56 56 56 56 57 58 58
67 68 69 70 71 72 74 75 77 78 80 81 83 84 85 86 87 88 88 88 88 88 88 88 87 86 85 84 84 84 84 83 83 83 82 82 83 83 82 82 81 80 79 78 77 77 77 77 76 74 73 71 69 67 64 62 61 59 58 57 56 55 55 55 55 55 56 56 56 56 55 55 55 54 54 54 54 55 55 55 55 55 56 57 57 58
68 69 70 71 72 74 75 77 78 80 81 82 84 85 86 86 87 87 87 87 87 86 85 85 84 83 83 82 82 82 82 82 82 81 81 81 81 80 80 79 78 77 76 74 73 73 72 72 72 72 71 69 67 64 62 60 58 56 55 54 53 52 52 52 52 53 53 53 54 54 53 53 53 53 53 54 54 54 54 54 55 55 56 56 57 57
69 70 71 73 74 75 77 78 79 81 82 83 84 85 86 86 86 86 86 85 84 83 83 82 81 81 80 80 80 80 80 80 80 79 79 78 78 78 77 76 75 74 72 71 70 69 68 68 68 68 68 67 65 63 60 57 55 54 52 51 50 50 49 49 49 50 51 51 51 51 51 51 52 52 53 53 53 53 54 54 54 55 55 56 56 56
70 72 73 74 76 77 78 79 81 82 83 84 84 85 85 85 85 84 83 83 82 81 80 79 79 79 79 79 79 79 79 79 78 77 76 75 75 74 74 73 71 70 69 68 67 66 65 65 65 65 65 64 63 60 58 55 53 51 50 49 48 47 47 47 47 48 49 49 49 50 50 50 51 52 52 53 53 53 53 54 54 54 54 54 54 54
72 73 74 76 77 78 80 81 82 82 83 84 84 84 84 83 82 82 81 80 79 79 78 78 77 77 77 77 77 77 77 76 76 74 73 72 72 71 70 69 68 67 66 65 64 63 62 62 62 62 62 61 60 58 55 53 51 49 48 47 46 45 45 45 46 46 47 48 48 48 49 50 51 51 52 52 52 52 52 53 53 53 53 53 52 52
73 75 76 77 78 79 81 81 82 83 83 83 83 83 82 81 80 79 79 78 77 77 77 77 76 76 76 76 76 75 74 74 72 71 70 69 68 68 67 66 65 64 63 62 61 60 60 60 60 59 59 58 56 55 53 50 49 47 46 45 44 44 43 44 44 45 46 47 47 48 49 50 50 51 51 51 51 51 51 51 51 51 51 50 50 50
75 76 77 78 79 80 81 82 82 82 82 82 82 81 80 79 78 78 77 77 76 76 76 76 75 75 74 74 73 72 71 70 69 68 67 66 65 65 64 64 63 62 60 59 58 58 57 57 57 57 56 55 53 52 50 48 47 45 44 44 43 42 42 42 43 44 45 46 47 48 49 49 50 50 50 49 49 50 49 49 49 49 48 48 48 47
76 77 78 79 80 81 81 81 82 81 81 80 80 79 78 77 77 76 76 76 76 75 75 75 74 73 73 72 71 69 68 67 66 65 64 63 62 62 61 61 60 59 58 57 56 55 55 55 54 54 53 52 50 49 47 46 44 44 43 43 42 42 41 41 42 43 44 45 46 48 49 49 49 49 48 48 48 48 48 47 47 46 46 45 45 45
77 78 79 80 80 81 81 81 80 80 79 79 78 77 76 76 76 75 75 75 75 74 73 73 72 71 70 69 68 66 65 64 63 62 61 60 59 59 58 58 57 57 56 55 54 53 53 52 52 51 50 49 48 46 45 43 42 42 42 42 42 42 41 41 41 42 43 45 46 47 48 49 48 48 47 47 46 46 45 45 45 44 44 43 43 43
78 79 80 80 80 80 80 80 79 78 77 77 76 76 75 75 75 75 75 74 73 72 72 71 70 69 68 66 65 64 62 61 60 59 58 57 57 56 56 55 55 54 53 52 52 51 51 50 49 48 47 46 45 44 43 42 41 41 41 42 42 42 42 41 41 42 43 44 45 47 47 47 47 46 45 45 44 44 44 43 43 42 42 41 41 41
79 80 80 80 80 80 79 78 77 77 76 75 75 75 75 75 75 74 74 73 72 71 69 68 67 67 65 64 62 61 60 59 58 57 56 55 54 53 53 52 52 51 51 50 50 49 49 48 47 46 45 44 43 42 41 41 40 40 41 42 43 43 43 42 41 41 42 43 45 46 46 46 45 44 44 43 42 42 42 41 41 40 40 40 39 39
80 80 80 80 79 79 78 77 76 75 74 74 74 74 74 74 74 73 72 71 70 68 67 66 65 64 63 62 60 59 57 56 55 54 53 52 52 51 50 50 49 49 49 48 48 48 47 46 45 44 43 42 41 40 40 40 40 41 41 42 43 44 44 43 42 42 42 43 44 45 45 45 44 43 42 41 41 40 40 40 39 39 39 38 38 38
80 80 80 79 78 77 76 75 74 74 74 74 74 74 73 73 72 71 70 69 68 66 65 64 63 62 61 59 58 57 55 54 53 51 50 50 49 48 48 47 47 47 46 46 46 46 45 44 43 42 41 40 39 39 39 39 40 41 42 43 44 44 44 43 43 42 42 43 43 44 43 43 42 41 40 39 39 39 38 38 38 38 37 37 36 36
80 80 79 78 77 76 75 74 74 73 73 73 73 73 72 71 70 69 68 67 65 64 63 62 61 60 59 57 56 55 54 52 51 49 48 47 46 46 45 45 45 45 44 44 45 44 44 43 42 40 39 38 38 38 39 39 40 41 43 43 44 44 44 43 43 42 42 42 42 42 42 41 40 39 38 38 37 37 37 37 36 36 36 36 36 35
80 80 79 77 76 75 74 74 73 73 73 73 72 72 71 69 68 67 65 64 63 62 61 60 59 58 57 56 55 53 52 51 49 47 46 45 44 44 43 43 43 43 43 43 43 43 42 42 41 39 38 37 37 37 38 39 40 42 43 44 45 45 44 43 42 42 41 41 41 41 40 39 38 38 37 36 36 35 35 35 35 35 35 35 35 35
80 79 78 77 76 75 74 73 73 73 73 72 71 70 69 67 66 64 63 62 61 60 59 58 57 56 55 54 53 52 50 49 48 46 44 43 42 41 41 41 41 41 41 41 41 41 41 41 40 39 37 37 37 37 38 39 41 42 44 45 45 45 44 42 41 41 41 40 40 39 38 38 37 36 36 35 34 34 34 34 34 34 34 34 34 34
79 78 77 76 75 75 74 74 74 73 72 71 70 68 66 65 63 62 61 60 59 58 57 56 55 54 53 52 51 50 49 48 46 45 43 42 41 40 39 39 39 39 39 40 40 40 40 40 39 38 37 37 37 38 38 39 41 42 44 45 45 45 43 42 40 39 39 39 38 38 37 36 36 35 34 34 33 33 32 33 33 33 34 34 34 33
79 78 77 76 75 75 75 74 74 73 71 70 68 66 64 62 61 60 59 58 57 56 55 54 54 53 52 50 49 48 47 46 45 44 42 41 40 39 38 38 38 38 38 39 39 40 40 40 39 38 37 37 37 38 39 40 41 42 44 45 45 44 42 41 39 38 38 38 37 36 36 35 34 34 33 33 32 32 31 31 32 32 33 33 33 33
78 77 76 76 75 75 75 74 73 72 70 68 66 64 62 60 59 58 57 56 55 55 54 53 52 51 50 49 48 47 46 45 44 42 41 40 39 38 38 37 37 37 38 38 39 39 40 40 39 38 37 37 38 39 40 41 41 43 44 44 44 43 41 39 38 37 36 36 35 35 34 34 33 33 32 32 31 31 30 30 30 31 32 32 32 32
77 76 76 76 76 75 75 74 72 70 68 66 64 62 60 59 57 56 55 54 54 53 52 51 50 50 49 48 47 46 45 44 43 41 40 39 38 38 37 37 37 37 38 38 39 40 40 40 40 39 38 37 38 39 40 40 41 43 44 44 43 42 40 38 37 36 35 35 34 34 33 33 32 32 32 31 31 30 30 29 30 30 31 31 32 32
Wind_Direction
266 267 268 268 269 269 270 271 272 273 274 275 275 276 277 278 278 279 279 280 280 281 281 281 282 283 283 284 285 285 286 286 286 286 287 287 287 288 288 288 288 288 288 287 287 287 287 286 286 286 286 286 286 285 285 284 284 284 283 283 282 282 282 282 281 281 281 281 280 280 280 280 279 279 279 278 278 277 276 276 275 274 273 272 271 270
266 266 267 267 268 269 270 270 271 272 273 274 274 275 276 276 277 278 278 278 279 279 280 281 281 282 283 284 284 285 285 286 286 287 287 287 288 288 288 288 288 287 287 287 286 286 286 286 286 286 285 285 285 284 284 283 283 283 282 282 282 282 282 282 281 281 281 281 280 280 280 280 280 279 279 278 278 277 277 276 275 275 274 273 272 271
266 266 267 267 268 269 269 270 271 271 272 273 273 274 274 275 276 276 277 277 278 279 279 280 281 282 283 283 284 285 285 286 286 287 287 288 288 288 288 287 287 287 286 286 286 286 286 285 285 285 284 284 284 284 283 283 283 283 282 282 282 282 282 282 282 282 281 281 281 281 280 280 280 280 280 279 279 278 277 277 276 275 274 273 272 271
266 266 266 267 268 268 269 270 270 271 271 271 272 273 273 274 274 275 276 277 278 279 279 280 281 282 282 283 284 285 286 286 287 287 287 287 287 287 287 287 286 286 286 286 286 285 285 285 284 284 284 283 283 283 283 283 283 283 283 283 283 283 283 283 283 283 283 283 282 282 282 282 281 281 280 280 279 279 278 277 276 275 274 273 272 271
266 266 267 267 268 268 269 269 269 270 270 271 271 272 273 273 274 275 276 277 278 279 280 280 281 282 283 284 284 285 286 286 287 287 287 287 287 286 286 286 286 286 285 285 285 285 284 284 284 284 283 283 283 283 283 283 284 284 284 284 284 284 284 284 284 284 284 284 284 284 283 283 283 282 281 281 280 279 278 277 276 275 274 274 273 272
266 266 267 267 267 268 268 269 269 270 270 271 272 272 273 274 275 276 277 278 278 279 280 281 282 282 283 284 285 286 286 286 287 286 286 286 286 286 286 285 285 285 285 285 285 284 284 284 284 284 284 284 284 284 284 285 285 285 285 286 286 286 286 286 286 286 286 285 285 285 284 284 283 282 282 281 280 279 278 277 276 275 274 273 272 272
266 266 267 267 267 268 268 269 270 270 271 272 273 274 274 275 276 277 278 278 279 280 281 282 282 283 284 285 285 286 286 286 286 285 285 285 285 285 285 285 285 285 285 284 284 284 284 284 284 284 284 285 285 285 285 286 286 286 287 287 287 287 287 287 287 286 286 285 285 284 283 283 282 281 281 280 279 279 278 277 276 275 274 273 272 272
266 267 267 267 268 268 269 270 271 271 272 273 274 275 275 276 277 277 278 279 280 281 282 283 283 284 284 285 285 285 285 285 285 285 285 285 285 285 285 285 285 284 284 284 284 284 284 284 284 285 285 285 286 286 286 287 287 287 288 288 288 288 287 287 286 286 285 285 284 283 282 282 281 280 280 279 278 278 277 277 276 275 274 274 273 272
267 267 267 268 269 270 270 271 272 273 273 274 274 275 276 277 278 279 279 280 281 282 283 283 284 284 284 284 284 284 284 284 285 285 285 285 285 285 284 284 284 284 284 284 284 284 285 285 285 285 286 286 287 287 287 288 288 288 288 288 287 287 286 286 285 285 284 283 282 282 281 281 280 279 279 278 278 277 277 276 276 275 275 274 273 272
268 268 269 269 270 271 271 272 273 273 274 275 275 276 277 278 279 280 281 282 282 283 283 283 283 283 283 283 283 284 284 285 285 285 285 284 284 284 284 284 284 285 285 285 285 285 285 286 286 286 287 287 288 288 288 288 288 288 287 287 286 286 285 284 284 283 283 282 282 281 281 280 280 279 279 278 278 277 277 276 276 275 275 274 273 273
269 269 270 271 271 272 272 273 273 274 275 276 277 278 279 280 281 281 282 282 282 282 282 282 282 282 283 283 284 284 285 285 285 284 284 284 284 284 285 285 285 285 285 286 286 286 287 287 287 287 288 288 288 288 288 287 287 287 286 286 285 285 284 284 284 283 283 282 282 281 281 280 280 279 279 278 278 277 277 276 276 275 275 274 274 273
270 271 271 271 272 272 273 274 274 275 276 277 278 279 280 281 281 281 282 282 282 282 282 282 282 283 283 284 284 285 285 285 285 284 284 285 285 285 285 286 286 286 286 287 287 287 288 288 288 288 288 287 287 287 287 287 286 286 286 285 285 285 285 284 284 284 283 283 282 282 281 280 280 279 279 278 278 277 277 276 276 275 275 275 274 274
271 271 272 272 273 273 274 275 276 277 278 279 280 280 281 281 281 281 281 281 281 281 282 283 283 283 284 284 284 284 285 285 285 285 285 285 286 286 287 287 287 287 287 288 288 288 288 288 288 287 287 287 287 287 287 287 287 287 286 286 286 286 285 285 284 284 283 283 282 281 281 280 280 279 279 278 278 277 277 276 276 276 275 275 275 274
271 271 272 273 274 276 277 278 279 279 280 280 280 280 280 280 280 281 281 281 282 282 283 283 284 284 284 284 284 285 285 285 286 286 286 286 287 287 288 288 288 288 288 288 288 288 288 288 288 288 288 288 288 288 288 288 288 287 287 287 286 286 285 285 284 284 283 282 282 281 281 280 279 279 278 278 277 277 277 276 276 276 275 275 275 275
273 274 275 276 278 278 279 279 280 280 280 280 280 280 281 281 281 282 282 282 283 283 284 284 284 284 284 285 285 286 286 287 287 287 287 288 288 289 289 289 289 289 289 289 289 289 289 289 289 289 289 289 289 289 289 288 288 288 287 287 286 286 285 285 284 283 283 282 282 281 280 280 279 279 279 278 278 277 277 277 276 276 276 275 275 275
277 278 278 279 279 279 279 279 279 280 280 280 281 281 282 282 282 283 283 283 283 284 284 284 285 285 286 286 287 287 288 288 288 288 289 289 289 290 290 290 290 290 290 290 290 290 290 290 290 290 290 290 290 289 289 289 288 288 287 287 286 285 285 284 284 283 283 282 282 281 281 280 280 279 279 278 278 278 277 277 277 276 276 276 276 275
279 279 279 279 279 279 280 280 281 281 282 282 282 283 283 283 283 283 283 284 284 285 285 285 286 286 287 288 288 289 289 289 290 290 290 290 291 291 291 291 291 291 291 291 291 291 291 291 291 291 290 290 290 289 289 288 288 287 287 286 286 285 285 284 284 283 283 282 282 281 281 281 280 280 279 279 279 278 278 278 277 277 277 276 276 276
279 279 279 280 280 280 281 282 282 282 283 283 283 283 283 283 284 284 284 285 285 286 286 287 287 288 289 290 290 290 291 291 291 291 292 292 292 292 292 292 292 292 292 292 292 291 291 291 291 291 290 290 290 289 289 288 288 287 287 286 286 285 285 284 284 283 283 283 282 282 281 281 281 280 280 279 279 279 278 278 278 277 277 277 276 276
280 280 280 281 281 282 282 282 283 283 283 283 284 284 284 284 285 285 286 287 287 288 288 289 290 290 291 291 292 292 293 293 293 293 293 293 292 292 292 292 292 292 292 292 292 291 291 291 291 291 290 290 289 289 288 288 287 287 287 286 286 285 285 285 284 284 283 283 283 282 282 281 281 280 280 280 279 279 279 278 278 278 277 277 277 276
281 281 281 282 282 283 283 283 283 284 284 285 285 286 286 287 287 288 288 289 290 290 291 291 292 292 293 293 293 293 294 294 293 293 293 293 293 293 292 292 292 292 292 292 292 292 291 291 291 290 290 290 289 289 288 288 287 287 286 286 286 285 285 285 284 284 284 283 283 282 282 281 281 281 280 280 280 279 279 279 278 278 278 277 277 277
282 282 282 283 283 284 284 285 285 286 286 287 288 288 289 289 290 291 291 292 292 293 293 293 293 294 294 294 294 294 294 293 293 293 293 293 293 293 293 293 293 292 292 292 292 292 291 291 290 290 290 289 289 288 288 287 287 287 286 286 286 285 285 285 285 284 284 283 283 283 282 282 281 281 280 280 280 280 279 279 279 279 278 278 277 277
283 283 284 285 285 286 287 287 288 289 289 290 291 291 292 292 293 293 294 294 294 294 294 294 294 294 294 293 293 293 293 293 293 293 293 293 293 293 293 293 293 293 292 292 292 291 291 290 290 289 289 288 288 288 287 287 287 287 286 286 286 286 285 285 285 284 284 284 283 283 282 282 281 281 281 280 280 280 280 279 279 279 278 278 277 277
285 286 287 288 288 289 290 290 291 292 292 293 293 293 294 294 294 294 294 294 294 294 294 294 294 293 293 293 293 293 293 293 293 293 293 293 293 293 293 293 293 292 292 291 291 291 290 289 289 288 288 288 288 287 287 287 287 287 287 286 286 286 285 285 285 284 284 284 283 283 282 282 282 281 281 281 281 280 280 280 279 279 278 278 277 277
289 290 291 291 292 292 292 293 293 294 294 294 294 294 294 294 294 294 294 294 294 294 294 294 294 293 293 293 293 293 293 293 293 293 293 293 293 293 293 293 292 292 291 291 290 290 289 289 288 288 288 288 287 287 287 287 287 287 287 286 286 286 286 285 285 285 284 284 283 283 282 282 282 281 281 281 281 280 280 280 279 279 278 277 277 276
293 293 293 294 294 294 294 294 294 294 294 294 294 294 294 294 294 294 294 294 294 294 294 294 294 293 293 293 293 293 293 293 293 293 293 292 292 292 292 291 291 291 290 290 289 289 289 288 288 288 288 288 287 288 287 287 287 287 287 287 286 286 286 285 285 284 284 283 283 282 282 282 281 281 281 281 281 280 280 279 279 278 277 277 276 275
295 295 295 295 295 294 294 294 294 294 294 294 294 294 294 295 294 294 294 294 294 294 294 294 294 294 293 293 293 293 293 293 293 292 292 292 291 291 291 290 290 290 289 289 289 289 288 288 288 288 288 288 288 288 288 288 287 287 287 287 286 286 286 285 285 284 283 283 282 282 282 282 281 281 281 281 280 280 279 278 278 277 277 276 275 275
295 295 295 295 295 295 295 295 295 295 295 295 295 295 295 295 295 295 295 294 294 294 294 294 294 294 293 293 293 293 293 293 292 292 291 291 291 290 290 290 290 289 289 289 289 289 288 288 288 288 288 288 288 288 288 288 287 287 287 286 286 286 285 285 284 284 283 283 282 282 282 281 281 281 281 280 280 279 279 278 277 277 276 276 275 275
295 295 295 295 296 296 296 296 296 296 296 296 296 295 295 295 295 295 295 295 295 295 294 294 294 294 293 293 293 293 293 292 292 292 291 291 290 290 290 290 289 289 289 289 289 289 289 288 289 289 289 289 288 288 288 288 287 287 287 286 286 286 285 285 284 283 283 282 282 282 281 281 281 281 280 280 279 279 278 277 277 276 276 275 275 275
296 296 296 296 296 296 296 296 296 296 296 296 296 296 296 296 295 295 295 295 295 295 294 294 294 294 294 293 293 293 293 292 292 291 291 291 290 290 290 289 289 289 289 289 289 289 289 289 289 289 289 289 288 288 288 287 287 287 287 286 286 285 285 284 283 283 282 282 282 281 281 281 281 280 280 279 279 278 278 277 277 276 276 276 275 275
297 297 297 297 297 297 297 297 297 297 297 297 297 296 296 296 296 295 295 295 295 295 295 294 294 294 294 294 293 293 292 292 292 291 291 291 290 290 290 289 289 289 289 289 289 289 289 289 289 289 289 288 288 288 288 287 287 287 287 286 286 285 284 283 283 282 282 281 281 281 281 281 280 280 279 279 279 278 278 277 277 277 276 276 275 275
298 298 298 298 298 298 298 298 298 298 298 297 297 297 297 296 296 296 296 296 295 295 295 295 295 294 294 294 294 293 292 292 292 292 291 291 290 290 290 290 289 289 289 289 289 289 289 289 289 289 288 288 288 288 288 288 287 287 287 286 285 284 283 282 282 281 281 281 280 280 280 280 280 280 279 279 278 278 278 277 277 277 277 276 276 276
299 300 299 299 299 299 299 299 299 299 298 298 298 297 297 297 297 296 296 296 296 296 295 295 295 295 294 294 293 293 292 292 292 292 292 291 291 290 290 290 289 289 289 289 289 289 289 289 289 289 288 288 288 288 288 288 287 287 286 286 285 284 283 282 281 280 280 280 280 280 280 280 280 279 279 279 278 278 278 278 278 277 277 277 276 276
301 301 301 301 300 300 300 300 299 299 299 299 298 298 298 297 297 297 297 297 296 296 296 296 295 295 294 294 293 293 292 292 292 292 292 292 291 291 290 290 290 290 290 289 289 289 289 289 289 289 289 288 288 288 288 288 288 287 286 285 284 283 282 281 280 279 279 279 279 279 279 279 279 279 279 279 278 278 278 278 278 278 277 277 277 277
302 302 302 302 301 301 301 300 300 300 300 299 299 299 298 298 298 298 297 297 297 297 296 296 296 296 295 294 294 293 293 293 293 293 292 292 292 291 291 291 290 290 290 290 289 289 288 288 288 288 288 288 289 289 289 289 288 287 286 285 284 283 281 280 279 279 279 278 279 279 279 279 279 279 279 279 279 279 279 279 279 278 278 278 278 278
303 303 303 303 302 302 302 301 301 301 300 300 300 299 299 299 299 298 298 298 297 297 297 296 296 296 296 295 295 294 294 293 293 293 293 293 292 292 291 291 291 291 290 290 290 289 288 288 287 287 288 288 289 289 289 289 288 287 286 285 284 282 281 280 279 279 278 278 279 279 279 279 279 279 279 279 280 280 280 279 279 279 278 278 278 278
304 304 304 304 303 303 303 302 302 302 301 301 300 300 300 300 299 299 299 298 298 298 297 297 297 296 296 296 295 295 295 294 294 294 293 293 292 292 292 291 291 291 291 290 290 289 288 288 287 287 287 288 289 289 289 289 288 287 286 284 283 282 281 280 279 279 279 279 279 279 279 279 279 279 279 280 280 280 280 279 279 279 279 278 278 278
305 305 305 305 304 304 304 303 303 302 302 302 301 301 301 301 300 300 300 300 299 299 299 298 297 297 296 296 295 295 295 295 294 294 294 293 293 292 292 292 292 291 291 290 290 289 288 288 287 287 287 288 288 289 289 289 288 287 285 284 282 281 280 280 279 279 280 280 280 280 280 280 279 280 280 280 280 280 280 279 279 279 278 278 278 278
306 306 306 305 305 305 305 304 304 304 303 303 303 302 302 302 302 302 301 301 301 300 300 299 298 298 297 296 296 295 295 295 295 294 294 294 293 293 292 292 292 291 291 290 290 289 289 288 288 288 288 288 288 288 289 288 287 286 285 283 282 281 280 280 280 280 280 281 281 281 281 280 280 280 281 281 280 280 279 279 279 278 278 278 278 277
307 307 307 306 306 306 306 305 305 305 304 304 304 304 303 303 303 303 303 302 302 301 301 300 299 298 297 297 296 296 296 295 295 295 294 294 294 293 293 292 292 292 291 290 290 289 288 288 288 288 288 288 288 288 288 287 286 285 284 283 282 281 280 280 280 281 281 282 282 282 282 281 281 281 281 281 280 280 279 279 278 278 277 277 277 277
308 308 308 307 307 307 307 306 306 306 306 305 305 305 305 305 304 304 304 303 303 302 301 300 299 299 298 297 297 297 296 296 295 295 295 294 294 294 293 293 292 292 291 291 290 289 288 288 288 288 288 288 288 288 287 286 286 285 284 283 282 282 281 281 281 282 283 283 283 283 282 282 282 282 282 281 280 280 279 278 278 277 277 276 276 275
309 309 309 308 308 308 307 307 307 307 307 306 306 306 306 306 306 305 305 304 303 302 301 301 300 299 298 298 297 297 297 297 296 296 295 295 295 294 294 293 293 292 292 291 290 289 288 288 288 288 288 288 288 287 287 286 285 285 284 284 284 283 283 283 283 284 284 284 284 284 283 283 283 283 282 281 280 279 278 278 277 276 276 275 274 274
310 310 310 309 309 309 308 308 308 308 308 307 308 308 307 307 307 306 306 305 304 303 302 301 301 300 299 299 298 298 298 297 297 296 296 296 295 295 294 293 293 292 292 291 290 289 289 288 288 288 288 288 288 287 287 286 286 285 285 285 285 285 285 285 286 286 286 286 285 284 284 284 283 283 282 281 280 279 278 277 276 275 275 274 273 273
311 311 310 310 310 310 309 309 309 309 309 309 309 309 308 308 308 307 306 305 304 304 303 302 301 301 300 300 299 299 298 298 297 297 297 296 295 295 294 294 293 292 292 291 290 289 289 288 288 288 288 288 287 287 287 287 286 286 286 286 286 287 287 288 288 288 288 287 286 285 284 284 283 282 281 280 279 278 277 277 276 275 274 273 272 272
312 312 311 311 311 311 310 310 310 310 310 310 310 310 309 309 308 307 307 306 305 304 303 302 302 301 301 300 300 300 299 298 298 297 297 296 296 295 294 294 293 292 291 291 290 289 288 288 288 287 287 287 287 287 287 287 287 287 287 287 287 288 289 289 290 290 289 287 286 285 284 284 283 282 281 280 278 278 277 276 276 275 274 273 272 272
313 312 312 312 312 312 311 311 311 311 311 311 311 311 310 309 309 308 307 306 305 304 304 303 303 302 302 301 301 300 300 299 298 298 297 297 296 296 295 294 293 292 291 290 289 289 288 288 287 287 287 286 286 287 287 287 288 288 288 288 288 289 290 291 291 291 290 288 286 285 284 283 282 281 280 279 278 277 277 276 276 275 275 274 273 272
314 313 313 313 313 313 313 313 313 313 313 312 312 311 311 310 309 308 307 307 306 305 304 304 303 303 302 302 301 301 300 300 299 298 298 297 296 295 295 294 293 292 291 290 289 288 288 287 287 287 286 286 286 287 287 288 288 289 289 289 289 289 290 291 292 291 289 288 286 285 284 283 281 280 279 278 278 277 276 276 276 276 275 275 274 274
315 314 314 314 314 314 314 314 314 314 314 313 313 312 311 310 310 309 308 307 306 305 305 304 304 303 303 302 302 302 301 300 300 299 298 298 297 296 295 294 292 291 290 289 288 288 287 287 287 287 287 287 287 287 288 288 289 289 289 289 289 290 291 292 292 291 289 287 286 284 283 282 281 280 279 278 277 276 276 276 276 276 276 276 276 276
315 315 315 315 315 315 315 315 315 315 314 314 313 312 312 311 310 309 308 307 307 306 305 305 304 304 303 303 302 302 301 301 300 300 299 298 297 296 295 293 292 291 290 289 288 287 287 286 286 287 287 288 288 288 289 289 289 289 289 289 289 290 291 292 291 290 288 286 285 284 282 281 280 279 278 277 277 276 276 277 277 277 278 278 278 278
316 316 316 316 316 316 316 316 316 316 315 314 314 313 312 311 310 309 309 308 307 306 306 305 305 304 304 303 303 302 301 301 301 300 299 299 298 297 295 294 293 291 290 289 288 287 286 286 286 287 288 288 289 289 290 290 289 289 289 289 289 290 291 292 291 289 286 285 284 283 282 280 279 278 278 277 277 277 276 277 277 278 279 279 279 279
317 317 317 317 317 317 317 317 316 316 315 315 314 313 312 311 310 310 309 308 307 307 306 305 305 304 304 303 303 302 302 301 301 300 300 299 298 297 296 295 294 292 291 290 288 288 287 287 287 288 288 289 290 290 290 290 290 289 289 289 289 290 291 291 290 287 285 284 283 282 281 280 279 278 278 277 277 277 277 277 278 279 279 280 280 281
318 318 318 318 318 318 318 317 317 316 316 315 314 313 312 312 311 310 309 308 308 307 306 305 305 304 304 303 303 302 302 301 300 300 300 299 298 298 297 296 294 293 292 291 290 289 288 288 288 289 289 290 291 291 291 291 290 289 288 288 289 290 290 290 288 286 284 283 281 280 279 279 278 278 278 278 278 278 278 278 279 280 280 281 282 282
Height
10487 10486 10486 10486 10486 10485 10483 10483 10483 10482 10480 10478 10477 10476 10474 10473 10471 10469 10467 10466 10465 10463 10461 10459 10458 10456 10455 10454 10453 10453 10451 10451 10450 10448 10448 10446 10445 10443 10441 10440 10438 10436 10434 10432 10430 10428 10426 10425 10423 10421 10420 10419 10418 10416 10416 10415 10415 10414 10413 10413 10413 10412 10411 10411 10411 10410 10410 10410 10409 10408 10408 10407 10406 10406 10406 10406 10405 10405 10405 10405 10404 10404 10405 10405 10405 10405
10482 10481 10480 10480 10480 10479 10476 10475 10476 10476 10474 10472 10471 10470 10468 10466 10464 10462 10461 10460 10458 10456 10455 10453 10451 10450 10448 10447 10446 10446 10445 10444 10443 10441 10440 10439 10437 10436 10434 10432 10430 10428 10426 10424 10422 10420 10418 10416 10415 10414 10412 10411 10410 10409 10408 10408 10407 10406 10406 10406 10405 10405 10405 10404 10403 10403 10403 10402 10401 10401 10400 10400 10398 10398 10397 10397 10396 10396 10396 10396 10395 10395 10395 10395 10395 10395
10475 10474 10473 10473 10474 10473 10471 10469 10469 10470 10469 10466 10464 10463 10461 10460 10458 10456 10455 10453 10451 10450 10448 10447 10445 10443 10441 10440 10440 10439 10438 10437 10436 10435 10433 10431 10430 10428 10425 10423 10421 10420 10418 10416 10414 10412 10410 10409 10408 10406 10405 10404 10403 10402 10401 10401 10400 10400 10399 10399 10398 10398 10397 10396 10396 10395 10395 10394 10393 10393 10392 10391 10390 10389 10388 10388 10387 10387 10386 10386 10386 10386 10386 10385 10385 10385
10468 10467 10466 10466 10467 10466 10465 10463 10463 10462 10461 10460 10458 10456 10455 10454 10451 10450 10448 10446 10445 10443 10442 10440 10438 10436 10435 10433 10433 10432 10431 10430 10429 10427 10425 10423 10421 10419 10417 10415 10413 10411 10410 10408 10406 10405 10403 10401 10400 10399 10398 10396 10396 10395 10395 10394 10393 10393 10392 10391 10391 10390 10390 10389 10388 10388 10386 10386 10385 10384 10383 10382 10381 10380 10380 10379 10378 10378 10377 10376 10376 10376 10376 10376 10376 10376
10461 10461 10460 10460 10460 10459 10458 10457 10456 10455 10454 10453 10451 10450 10449 10447 10445 10443 10442 10441 10439 10437 10435 10433 10431 10430 10428 10427 10426 10425 10425 10423 10421 10420 10417 10415 10413 10411 10408 10406 10405 10403 10402 10400 10398 10397 10396 10394 10393 10391 10391 10390 10389 10388 10387 10386 10386 10386 10385 10385 10383 10383 10382 10381 10380 10379 10378 10377 10376 10375 10374 10373 10371 10371 10370 10370 10369 10368 10368 10367 10367 10366 10366 10366 10366 10366
10454 10455 10454 10455 10453 10452 10451 10450 10450 10449 10448 10446 10445 10443 10442 10441 10439 10438 10436 10435 10433 10431 10428 10426 10425 10423 10422 10420 10420 10418 10417 10415 10413 10411 10409 10406 10405 10402 10400 10399 10397 10396 10394 10393 10391 10390 10388 10387 10386 10385 10383 10383 10381 10381 10380 10380 10379 10378 10378 10377 10376 10375 10374 10373 10372 10371 10370 10368 10367 10366 10365 10363 10363 10361 10361 10360 10360 10359 10358 10358 10357 10357 10356 10356 10356 10356
10448 10448 10448 10448 10446 10445 10445 10443 10443 10442 10441 10440 10438 10436 10435 10434 10433 10431 10430 10428 10426 10424 10422 10420 10418 10416 10415 10414 10413 10411 10410 10408 10405 10403 10401 10398 10396 10395 10393 10391 10390 10388 10386 10385 10384 10383 10381 10380 10379 10378 10376 10376 10375 10374 10373 10373 10371 10371 10370 10369 10368 10367 10366 10365 10363 10362 10361 10360 10358 10357 10356 10355 10354 10353 10352 10351 10350 10350 10349 10348 10348 10347 10347 10346 10346 10346
10441 10441 10442 10441 10440 10439 10438 10437 10436 10436 10435 10433 10431 10430 10428 10427 10426 10425 10423 10421 10420 10418 10415 10413 10411 10410 10408 10406 10405 10403 10401 10400 10398 10395 10393 10391 10389 10387 10385 10383 10382 10381 10379 10378 10376 10375 10374 10373 10372 10371 10370 10369 10368 10367 10366 10365 10365 10363 10363 10361 10360 10359 10358 10356 10355 10354 10353 10351 10350 10349 10348 10346 10345 10345 10343 10342 10341 10340 10339 10338 10338 10337 10336 10336 10336 10336
10436 10435 10435 10435 10435 10433 10431 10431 10430 10430 10430 10428 10426 10423 10422 10420 10419 10418 10416 10415 10413 10411 10409 10406 10404 10401 10400 10398 10397 10396 10394 10392 10390 10388 10386 10383 10381 10379 10378 10376 10375 10373 10372 10371 10370 10368 10367 10366 10365 10364 10363 10362 10361 10360 10359 10358 10357 10356 10355 10354 10353 10351 10350 10348 10347 10346 10344 10343 10341 10340 10339 10338 10336 10335 10334 10333 10331 10330 10330 10328 10328 10327 10326 10326 10326 10326
10430 10430 10428 10428 10428 10428 10426 10425 10423 10423 10423 10421 10420 10418 10416 10415 10413 10411 10410 10407 10406 10404 10403 10400 10396 10393 10391 10390 10390 10389 10387 10385 10383 10381 10378 10376 10373 10371 10370 10369 10367 10366 10365 10363 10362 10361 10360 10359 10358 10357 10356 10355 10354 10353 10352 10351 10350 10349 10348 10346 10345 10343 10342 10340 10338 10337 10335 10334 10332 10331 10330 10328 10326 10325 10324 10323 10321 10321 10320 10319 10318 10317 10316 10316 10316 10316
10424 10424 10423 10422 10421 10421 10421 10419 10417 10416 10416 10415 10413 10411 10410 10409 10407 10405 10403 10400 10398 10396 10395 10392 10390 10387 10385 10383 10382 10381 10381 10378 10375 10373 10371 10368 10366 10365 10363 10361 10360 10358 10357 10355 10355 10353 10353 10351 10350 10350 10348 10347 10346 10345 10345 10343 10343 10341 10340 10338 10336 10335 10333 10331 10330 10328 10326 10325 10323 10321 10320 10318 10317 10315 10314 10313 10311 10311 10310 10308 10308 10307 10306 10306 10306 10305
10418 10418 10417 10416 10415 10415 10414 10413 10412 10411 10411 10410 10408 10405 10404 10403 10402 10400 10396 10393 10390 10388 10386 10384 10382 10381 10379 10377 10375 10375 10373 10371 10368 10365 10363 10361 10359 10358 10356 10355 10353 10351 10350 10348 10346 10346 10345 10344 10343 10341 10341 10340 10339 10338 10337 10336 10335 10333 10331 10330 10328 10326 10324 10322 10320 10318 10317 10315 10313 10312 10310 10308 10307 10306 10305 10303 10302 10301 10300 10298 10298 10297 10296 10296 10295 10295
10413 10411 10411 10410 10409 10408 10408 10407 10406 10405 10405 10403 10401 10400 10397 10396 10395 10393 10390 10386 10383 10381 10380 10378 10375 10374 10373 10371 10370 10368 10366 10363 10361 10358 10355 10353 10351 10351 10350 10348 10345 10343 10341 10340 10339 10338 10337 10336 10335 10333 10332 10331 10331 10330 10328 10327 10325 10324 10322 10320 10318 10316 10315 10313 10311 10309 10308 10306 10304 10302 10300 10299 10297 10296 10295 10293 10291 10290 10290 10288 10288 10286 10286 10285 10285 10285
10406 10406 10405 10405 10403 10403 10403 10402 10401 10399 10398 10396 10395 10393 10391 10389 10388 10386 10383 10380 10377 10375 10374 10371 10369 10366 10365 10365 10364 10363 10360 10357 10353 10350 10348 10345 10345 10345 10343 10340 10336 10335 10333 10333 10331 10329 10328 10328 10326 10325 10323 10323 10322 10321 10320 10318 10316 10315 10313 10311 10309 10307 10305 10303 10301 10300 10298 10296 10294 10292 10290 10289 10287 10286 10285 10283 10281 10280 10280 10278 10278 10276 10276 10275 10275 10274
10401 10401 10400 10399 10398 10398 10397 10396 10395 10393 10391 10390 10388 10386 10385 10383 10381 10379 10376 10373 10371 10370 10368 10366 10363 10360 10358 10357 10357 10356 10354 10351 10346 10343 10340 10338 10337 10337 10336 10333 10328 10326 10325 10324 10322 10320 10319 10318 10317 10315 10314 10313 10313 10311 10310 10309 10307 10305 10303 10301 10300 10298 10296 10294 10292 10290 10288 10286 10284 10282 10280 10278 10277 10275 10274 10273 10271 10270 10269 10268 10268 10266 10266 10265 10265 10264
10397 10396 10395 10394 10393 10391 10390 10390 10388 10386 10385 10383 10383 10381 10379 10376 10374 10373 10371 10368 10366 10364 10362 10360 10356 10353 10350 10350 10351 10351 10348 10344 10340 10336 10333 10330 10328 10328 10329 10325 10321 10316 10315 10315 10313 10311 10309 10308 10308 10306 10306 10305 10304 10303 10301 10300 10298 10296 10295 10293 10290 10288 10286 10284 10282 10280 10278 10276 10274 10272 10270 10268 10266 10265 10263 10262 10261 10260 10259 10258 10257 10256 10256 10255 10254 10253
10392 10391 10390 10388 10386 10385 10384 10383 10383 10381 10380 10378 10376 10375 10373 10370 10368 10366 10365 10362 10360 10358 10356 10354 10351 10347 10343 10341 10342 10343 10343 10339 10333 10329 10326 10323 10320 10320 10320 10318 10313 10308 10306 10305 10304 10302 10301 10300 10298 10297 10296 10296 10295 10293 10292 10290 10289 10287 10285 10283 10281 10279 10276 10274 10272 10270 10268 10266 10263 10261 10260 10258 10256 10255 10253 10252 10251 10250 10249 10248 10247 10246 10245 10245 10244 10243
10387 10386 10385 10383 10381 10380 10380 10378 10377 10376 10374 10372 10370 10368 10367 10365 10363 10361 10358 10356 10355 10352 10350 10348 10345 10343 10339 10335 10333 10333 10335 10332 10326 10321 10318 10315 10312 10310 10310 10309 10305 10301 10298 10296 10295 10293 10292 10291 10290 10288 10287 10286 10285 10284 10282 10281 10279 10277 10275 10273 10271 10269 10266 10265 10262 10260 10258 10255 10253 10251 10250 10248 10246 10245 10243 10242 10241 10239 10239 10238 10237 10236 10236 10234 10234 10233
10382 10381 10380 10378 10377 10376 10375 10373 10372 10371 10369 10366 10365 10363 10360 10358 10357 10355 10353 10351 10349 10346 10344 10341 10338 10336 10333 10330 10326 10325 10326 10324 10319 10314 10310 10306 10303 10301 10301 10300 10297 10293 10290 10288 10286 10285 10283 10281 10280 10279 10278 10277 10275 10274 10273 10271 10269 10268 10265 10263 10261 10259 10257 10255 10252 10250 10248 10245 10243 10241 10239 10238 10236 10234 10233 10232 10231 10230 10229 10228 10228 10226 10226 10225 10224 10224
10378 10377 10376 10375 10373 10371 10370 10368 10367 10365 10363 10361 10360 10357 10355 10352 10351 10349 10347 10345 10342 10340 10337 10335 10331 10328 10326 10323 10320 10317 10316 10315 10311 10306 10302 10299 10296 10293 10292 10291 10288 10285 10281 10279 10278 10276 10275 10272 10271 10270 10268 10267 10266 10264 10263 10261 10260 10258 10256 10254 10251 10250 10247 10245 10242 10240 10238 10236 10233 10231 10229 10228 10226 10224 10223 10223 10221 10221 10220 10219 10218 10218 10216 10216 10215 10214
10373 10372 10371 10370 10368 10366 10364 10363 10361 10360 10358 10356 10354 10351 10348 10346 10344 10342 10340 10338 10335 10332 10330 10327 10324 10321 10319 10316 10313 10310 10309 10308 10304 10299 10294 10291 10288 10285 10284 10283 10280 10276 10272 10270 10268 10266 10265 10263 10261 10260 10258 10258 10256 10255 10253 10251 10250 10248 10246 10245 10242 10239 10238 10235 10233 10230 10228 10226 10224 10221 10219 10218 10216 10215 10214 10213 10213 10212 10211 10210 10209 10209 10208 10207 10206 10205
10370 10368 10366 10366 10365 10362 10360 10358 10356 10355 10353 10350 10348 10345 10341 10340 10337 10335 10332 10330 10328 10325 10322 10320 10317 10315 10312 10310 10306 10303 10301 10300 10296 10291 10286 10282 10278 10275 10275 10274 10271 10267 10263 10260 10258 10256 10255 10253 10251 10250 10249 10248 10246 10245 10244 10242 10241 10239 10237 10235 10233 10230 10228 10226 10223 10221 10219 10216 10214 10212 10210 10209 10208 10206 10206 10204 10204 10203 10203 10202 10201 10200 10199 10198 10197 10196
10366 10364 10362 10361 10360 10357 10355 10353 10350 10348 10346 10344 10341 10338 10336 10333 10331 10328 10325 10323 10320 10318 10315 10312 10310 10307 10305 10302 10299 10296 10294 10292 10289 10285 10280 10275 10270 10266 10265 10265 10263 10258 10254 10251 10249 10247 10245 10243 10241 10241 10239 10239 10237 10236 10234 10233 10231 10230 10228 10226 10223 10221 10219 10216 10214 10212 10209 10208 10205 10203 10201 10200 10199 10198 10197 10196 10196 10195 10194 10194 10193 10192 10191 10190 10189 10188
10361 10360 10358 10356 10354 10352 10350 10347 10345 10343 10340 10338 10335 10333 10330 10328 10325 10323 10320 10317 10314 10311 10308 10305 10302 10299 10296 10294 10292 10289 10286 10284 10281 10278 10273 10267 10262 10258 10256 10256 10253 10249 10245 10241 10239 10238 10235 10233 10231 10231 10231 10229 10228 10227 10226 10224 10223 10221 10219 10217 10214 10213 10210 10208 10206 10203 10201 10199 10196 10194 10193 10192 10191 10190 10189 10189 10188 10188 10187 10186 10185 10184 10183 10182 10181 10179
10356 10355 10353 10350 10348 10346 10345 10342 10340 10337 10335 10333 10330 10327 10325 10322 10319 10316 10313 10311 10308 10304 10301 10298 10295 10291 10288 10286 10283 10280 10278 10276 10274 10271 10265 10260 10254 10250 10248 10248 10245 10241 10236 10232 10230 10228 10226 10223 10221 10221 10221 10220 10219 10218 10217 10216 10214 10213 10210 10208 10206 10204 10202 10199 10197 10195 10193 10190 10188 10187 10186 10184 10184 10183 10182 10181 10181 10180 10179 10179 10178 10177 10176 10175 10173 10172
10351 10350 10347 10345 10343 10341 10339 10337 10335 10332 10330 10326 10324 10321 10318 10315 10312 10309 10306 10303 10300 10297 10294 10290 10286 10283 10280 10278 10275 10272 10270 10268 10266 10263 10258 10253 10247 10242 10239 10239 10237 10233 10228 10223 10220 10218 10216 10213 10212 10211 10211 10211 10210 10209 10208 10207 10206 10204 10202 10200 10198 10196 10194 10191 10189 10187 10184 10183 10181 10179 10178 10178 10176 10176 10175 10174 10174 10173 10173 10172 10171 10170 10169 10168 10167 10166
10346 10345 10343 10340 10338 10336 10333 10331 10328 10326 10323 10320 10318 10315 10312 10309 10305 10301 10298 10295 10292 10290 10286 10282 10278 10274 10271 10269 10266 10264 10261 10260 10257 10253 10250 10245 10239 10234 10231 10229 10228 10224 10219 10214 10211 10208 10206 10204 10203 10202 10202 10201 10201 10201 10200 10199 10198 10196 10194 10193 10191 10189 10186 10184 10181 10179 10177 10175 10173 10172 10171 10171 10170 10169 10168 10168 10167 10166 10166 10165 10164 10163 10163 10161 10161 10159
10342 10340 10338 10335 10333 10330 10328 10325 10322 10320 10317 10314 10311 10308 10305 10302 10298 10294 10290 10286 10285 10282 10278 10274 10270 10266 10263 10260 10257 10255 10253 10251 10248 10244 10241 10237 10231 10226 10223 10221 10219 10216 10212 10207 10203 10199 10198 10196 10194 10194 10193 10193 10192 10192 10191 10191 10190 10189 10187 10185 10184 10181 10179 10177 10174 10172 10169 10168 10166 10166 10164 10164 10163 10163 10162 10161 10160 10159 10159 10158 10158 10157 10156 10156 10154 10154
10338 10335 10333 10330 10328 10325 10322 10319 10316 10313 10310 10307 10304 10301 10298 10295 10291 10287 10282 10280 10277 10273 10269 10265 10262 10259 10255 10251 10248 10246 10244 10241 10239 10235 10232 10228 10222 10218 10215 10213 10210 10207 10204 10199 10194 10191 10188 10187 10186 10186 10184 10184 10184 10183 10183 10183 10183 10181 10180 10178 10177 10174 10173 10170 10168 10165 10163 10161 10160 10159 10158 10158 10157 10156 10156 10155 10154 10153 10153 10152 10152 10151 10150 10149 10149 10148
10332 10330 10328 10325 10323 10320 10316 10313 10310 10306 10303 10300 10297 10293 10290 10287 10284 10280 10276 10272 10269 10265 10261 10257 10253 10250 10247 10243 10239 10236 10233 10231 10229 10227 10223 10218 10213 10209 10207 10204 10202 10199 10197 10193 10188 10183 10179 10178 10178 10178 10177 10176 10176 10176 10176 10176 10175 10174 10173 10171 10170 10168 10166 10164 10161 10159 10157 10155 10154 10153 10153 10152 10151 10150 10149 10149 10148 10148 10147 10146 10146 10145 10144 10143 10143 10141
10326 10324 10321 10318 10316 10313 10310 10307 10303 10300 10296 10293 10290 10286 10283 10279 10276 10272 10268 10265 10261 10257 10253 10248 10245 10241 10238 10235 10231 10226 10223 10221 10219 10218 10214 10209 10204 10201 10198 10196 10193 10191 10189 10187 10183 10177 10173 10169 10169 10169 10169 10169 10168 10168 10168 10168 10168 10167 10166 10164 10163 10161 10159 10158 10155 10153 10151 10149 10148 10148 10147 10146 10146 10145 10144 10143 10143 10142 10141 10141 10140 10139 10139 10138 10136 10136
10320 10317 10315 10312 10310 10306 10303 10300 10297 10293 10290 10286 10282 10278 10275 10271 10267 10263 10260 10256 10252 10248 10245 10240 10236 10233 10229 10226 10223 10219 10214 10211 10209 10208 10206 10201 10196 10192 10190 10188 10184 10182 10181 10179 10176 10172 10168 10163 10161 10160 10161 10161 10161 10161 10162 10162 10161 10161 10159 10158 10156 10155 10154 10152 10150 10148 10146 10144 10143 10143 10142 10141 10140 10139 10139 10138 10137 10136 10136 10136 10135 10134 10133 10131 10130 10129
10314 10311 10308 10306 10303 10300 10296 10293 10290 10286 10282 10278 10275 10270 10266 10263 10259 10255 10251 10248 10244 10240 10236 10232 10228 10224 10221 10218 10214 10211 10207 10204 10201 10199 10196 10193 10188 10184 10182 10179 10177 10174 10173 10171 10169 10166 10163 10158 10155 10153 10152 10152 10153 10154 10154 10155 10155 10154 10153 10151 10150 10149 10148 10146 10144 10143 10141 10139 10138 10138 10137 10136 10135 10134 10133 10133 10132 10131 10131 10130 10129 10128 10127 10126 10124 10124
10308 10305 10302 10299 10296 10293 10289 10286 10282 10278 10275 10270 10266 10263 10258 10255 10251 10247 10243 10239 10236 10232 10228 10224 10220 10216 10212 10208 10204 10201 10198 10196 10193 10191 10188 10184 10180 10176 10174 10171 10169 10167 10165 10163 10161 10159 10157 10154 10151 10148 10145 10144 10145 10146 10148 10148 10148 10148 10146 10145 10144 10143 10142 10141 10139 10138 10136 10134 10134 10133 10132 10131 10130 10129 10128 10128 10127 10126 10126 10125 10124 10123 10121 10120 10119 10119
10301 10298 10295 10292 10289 10285 10281 10278 10274 10270 10266 10262 10258 10255 10250 10246 10242 10238 10234 10231 10227 10223 10219 10216 10213 10208 10204 10200 10196 10192 10189 10187 10185 10183 10180 10176 10173 10169 10166 10164 10162 10161 10158 10156 10154 10153 10150 10148 10146 10143 10141 10139 10139 10139 10141 10142 10142 10141 10140 10139 10138 10138 10136 10136 10134 10133 10131 10130 10129 10128 10128 10126 10125 10124 10123 10123 10122 10121 10120 10119 10118 10117 10116 10115 10114 10113
10295 10291 10288 10285 10281 10278 10273 10270 10266 10262 10258 10253 10250 10246 10241 10238 10233 10229 10226 10222 10218 10214 10211 10207 10204 10200 10196 10193 10189 10184 10181 10179 10177 10175 10172 10169 10166 10163 10159 10157 10155 10154 10152 10149 10148 10146 10144 10142 10140 10138 10137 10134 10134 10134 10134 10135 10136 10135 10134 10133 10133 10132 10131 10131 10129 10128 10126 10126 10124 10124 10123 10122 10121 10119 10119 10118 10118 10116 10115 10114 10113 10111 10111 10109 10109 10108
10288 10285 10281 10278 10274 10270 10265 10261 10257 10253 10249 10245 10241 10236 10233 10229 10224 10221 10217 10213 10209 10206 10202 10198 10195 10191 10188 10185 10181 10178 10174 10172 10169 10167 10164 10162 10159 10156 10153 10150 10148 10147 10146 10143 10141 10140 10138 10136 10134 10133 10132 10131 10129 10129 10129 10129 10129 10129 10128 10128 10128 10127 10126 10126 10124 10123 10122 10121 10120 10119 10118 10117 10116 10114 10114 10113 10113 10111 10110 10109 10108 10106 10106 10104 10104 10103
10282 10278 10274 10270 10266 10262 10258 10253 10249 10245 10241 10236 10232 10228 10224 10220 10216 10212 10208 10204 10201 10197 10193 10189 10186 10183 10180 10177 10174 10171 10168 10165 10163 10160 10158 10155 10153 10150 10147 10144 10142 10141 10139 10138 10136 10134 10133 10131 10129 10128 10126 10126 10125 10124 10124 10124 10123 10123 10123 10123 10122 10122 10122 10121 10121 10119 10118 10116 10115 10114 10113 10111 10111 10109 10109 10108 10108 10106 10104 10103 10103 10102 10101 10100 10099 10098
10275 10271 10266 10263 10258 10254 10250 10245 10241 10236 10232 10228 10224 10219 10216 10211 10208 10204 10200 10196 10193 10189 10185 10181 10178 10174 10171 10169 10166 10164 10161 10159 10156 10154 10151 10149 10146 10144 10141 10138 10136 10134 10133 10132 10130 10128 10127 10125 10124 10123 10121 10121 10120 10119 10119 10119 10119 10118 10117 10117 10117 10117 10118 10117 10116 10115 10114 10112 10111 10109 10108 10106 10105 10105 10104 10103 10102 10101 10099 10099 10098 10097 10096 10096 10094 10094
10268 10263 10259 10255 10251 10246 10242 10238 10233 10229 10224 10220 10216 10211 10208 10204 10199 10196 10192 10188 10184 10181 10177 10173 10170 10167 10164 10161 10159 10157 10154 10152 10150 10148 10145 10143 10141 10138 10136 10133 10131 10129 10127 10126 10124 10123 10121 10120 10119 10118 10117 10116 10115 10114 10114 10114 10114 10113 10113 10111 10111 10111 10113 10113 10112 10111 10109 10108 10106 10104 10102 10101 10100 10100 10099 10098 10097 10096 10095 10094 10093 10093 10092 10091 10091 10090
10260 10256 10251 10247 10243 10239 10234 10230 10226 10221 10217 10213 10208 10204 10199 10196 10192 10188 10184 10180 10176 10173 10169 10166 10163 10159 10157 10154 10153 10151 10148 10146 10144 10141 10139 10138 10135 10133 10130 10128 10126 10123 10121 10120 10119 10118 10116 10115 10114 10113 10113 10112 10111 10110 10109 10109 10109 10109 10108 10107 10106 10106 10106 10107 10108 10106 10105 10103 10101 10099 10097 10096 10096 10095 10094 10093 10092 10091 10090 10089 10089 10088 10088 10087 10086 10086
10253 10248 10244 10239 10235 10231 10226 10223 10218 10214 10209 10205 10201 10196 10193 10189 10184 10180 10176 10172 10169 10165 10162 10159 10155 10152 10149 10148 10146 10144 10143 10140 10138 10136 10134 10132 10129 10127 10125 10123 10121 10118 10116 10114 10113 10112 10111 10111 10109 10109 10108 10108 10107 10106 10105 10105 10104 10104 10103 10103 10101 10101 10101 10102 10102 10102 10100 10098 10096 10094 10093 10091 10091 10090 10089 10089 10088 10086 10086 10085 10084 10084 10083 10083 10083 10082
10245 10241 10236 10232 10228 10223 10219 10215 10211 10206 10203 10198 10194 10189 10186 10182 10178 10173 10169 10165 10162 10158 10155 10152 10149 10146 10143 10141 10139 10138 10136 10134 10133 10131 10128 10126 10124 10122 10120 10118 10116 10114 10112 10110 10108 10107 10106 10106 10105 10104 10104 10104 10103 10102 10101 10101 10100 10099 10099 10098 10097 10096 10096 10096 10097 10096 10095 10093 10091 10089 10088 10087 10086 10085 10084 10084 10083 10082 10081 10081 10080 10079 10079 10079 10079 10078
10237 10233 10229 10224 10220 10216 10212 10208 10204 10199 10195 10191 10186 10183 10178 10174 10171 10166 10163 10158 10155 10152 10149 10146 10143 10140 10137 10135 10133 10131 10130 10128 10127 10126 10124 10121 10119 10118 10115 10113 10111 10109 10108 10106 10104 10103 10101 10101 10101 10101 10101 10100 10099 10098 10098 10096 10096 10095 10094 10093 10093 10092 10091 10091 10091 10091 10090 10088 10086 10084 10083 10083 10081 10081 10080 10079 10079 10078 10077 10076 10076 10076 10075 10075 10074 10074
10230 10225 10221 10217 10213 10209 10204 10200 10196 10192 10188 10184 10180 10176 10171 10168 10164 10160 10156 10152 10148 10145 10143 10139 10137 10134 10131 10129 10128 10126 10124 10123 10121 10120 10119 10117 10115 10113 10111 10109 10107 10105 10103 10101 10100 10098 10098 10097 10097 10097 10097 10096 10096 10095 10094 10093 10092 10091 10089 10089 10088 10088 10087 10087 10086 10086 10084 10083 10081 10080 10079 10078 10077 10076 10076 10076 10075 10074 10073 10073 10072 10071 10071 10071 10071 10070
10223 10218 10214 10209 10205 10201 10197 10193 10189 10185 10181 10177 10173 10169 10165 10161 10157 10153 10149 10146 10143 10139 10136 10134 10131 10129 10126 10124 10122 10120 10118 10117 10116 10115 10114 10112 10111 10109 10107 10104 10103 10101 10099 10098 10096 10094 10094 10093 10093 10093 10093 10093 10093 10092 10091 10089 10088 10087 10085 10084 10083 10083 10083 10083 10082 10081 10079 10078 10077 10076 10075 10074 10073 10073 10072 10071 10071 10070 10069 10069 10068 10068 10067 10066 10066 10066
10214 10210 10206 10202 10198 10194 10189 10186 10182 10178 10174 10170 10166 10163 10159 10155 10151 10147 10144 10141 10137 10134 10131 10128 10126 10124 10121 10119 10117 10115 10113 10111 10110 10109 10109 10108 10106 10104 10103 10101 10099 10097 10095 10094 10092 10091 10090 10089 10089 10089 10089 10089 10089 10088 10087 10086 10084 10083 10081 10080 10079 10078 10078 10078 10078 10077 10075 10073 10072 10071 10071 10070 10069 10068 10068 10068 10067 10067 10066 10065 10064 10064 10063 10063 10062 10062
10208 10203 10199 10194 10191 10186 10183 10179 10175 10171 10167 10163 10159 10156 10153 10149 10145 10141 10138 10134 10132 10129 10126 10123 10121 10119 10116 10114 10113 10110 10108 10106 10105 10104 10104 10103 10101 10100 10099 10097 10095 10094 10092 10090 10089 10087 10086 10086 10086 10086 10086 10086 10085 10084 10083 10082 10081 10079 10078 10076 10074 10074 10074 10074 10074 10073 10071 10069 10068 10067 10066 10066 10065 10064 10064 10064 10064 10063 10063 10062 10061 10060 10059 10058 10058 10058
10201 10196 10192 10188 10183 10179 10175 10171 10168 10164 10160 10156 10153 10149 10146 10143 10140 10136 10133 10129 10126 10124 10121 10118 10116 10114 10112 10109 10108 10106 10104 10103 10101 10100 10099 10098 10097 10096 10094 10093 10091 10090 10088 10087 10085 10084 10083 10082 10082 10083 10083 10083 10082 10081 10079 10078 10077 10075 10073 10071 10071 10070 10070 10069 10069 10068 10067 10065 10064 10063 10063 10062 10061 10061 10061 10060 10060 10059 10059 10059 10058 10057 10056 10054 10054 10054
10194 10190 10186 10181 10177 10173 10168 10164 10161 10158 10154 10150 10147 10144 10140 10138 10134 10131 10128 10125 10122 10119 10116 10114 10111 10109 10107 10105 10104 10102 10100 10098 10097 10096 10095 10094 10093 10091 10090 10089 10088 10086 10084 10083 10081 10080 10079 10078 10078 10079 10079 10079 10078 10077 10076 10074 10073 10071 10069 10068 10066 10066 10066 10066 10065 10064 10063 10061 10061 10059 10059 10058 10058 10057 10057 10057 10056 10056 10056 10056 10054 10053 10052 10051 10050 10050
10187 10183 10179 10174 10170 10166 10162 10158 10154 10151 10148 10144 10141 10138 10135 10132 10129 10126 10123 10121 10118 10114 10112 10110 10108 10105 10103 10101 10099 10098 10096 10094 10093 10092 10091 10090 10089 10088 10086 10085 10084 10083 10081 10079 10078 10076 10076 10074 10074 10074 10075 10076 10075 10074 10071 10069 10068 10066 10064 10063 10063 10062 10062 10061 10061 10060 10059 10058 10057 10056 10056 10055 10054 10054 10053 10053 10053 10053 10053 10052 10051 10050 10049 10048 10047 10046